DLH967 EGNT-EDDF

Flight info

Callsign DLH967
Flight time 1h 29m
Altitude 23000
Route GIRLI P18 GASKO Y250 RIMTO/N0452F350 UY250 MAMUL L603 DOLAS DCT NAVPI DCT NOLRU DCT DIXAT DIXAT1A
Aircraft A320/M-SDE3FGHIRWY/LB1

Departure

Time 2026-05-05 15:15
Airport Newcastle International Airport (EGNT)

Arrival

Time 2026-05-05 16:44
Airport Frankfurt Main Airport (EDDF)
Time Latitude Longitude Altitude Speed Heading
2026-05-05 15:09 55.03728 -1.70672 258 ft 0 kts 184°
2026-05-05 15:09 55.03740 -1.70670 257 ft 4 kts 184°
2026-05-05 15:09 55.03767 -1.70666 256 ft 3 kts 184°
2026-05-05 15:10 55.03788 -1.70666 255 ft 4 kts 159°
2026-05-05 15:10 55.03805 -1.70691 255 ft 4 kts 102°
2026-05-05 15:10 55.03807 -1.70717 255 ft 1 kts 94°
2026-05-05 15:11 55.03807 -1.70716 255 ft 0 kts 94°
2026-05-05 15:12 55.03807 -1.70706 255 ft 5 kts 94°
2026-05-05 15:12 55.03802 -1.70573 255 ft 14 kts 94°
2026-05-05 15:13 55.03760 -1.70432 256 ft 13 kts 166°
2026-05-05 15:13 55.03683 -1.70433 259 ft 9 kts 184°
2026-05-05 15:13 55.03623 -1.70454 261 ft 13 kts 211°
2026-05-05 15:13 55.03586 -1.70605 262 ft 13 kts 246°
2026-05-05 15:14 55.03512 -1.70648 261 ft 14 kts 180°
2026-05-05 15:14 55.03403 -1.70650 261 ft 15 kts 170°
2026-05-05 15:14 55.03387 -1.70506 261 ft 16 kts 65°
2026-05-05 15:14 55.03511 -1.70044 260 ft 82 kts 65°
2026-05-05 15:15 55.03854 -1.68738 290 ft 147 kts 62°
2026-05-05 15:15 55.04281 -1.67134 1042 ft 149 kts 62°
2026-05-05 15:15 55.04733 -1.65447 1822 ft 164 kts 60°
2026-05-05 15:15 55.05249 -1.63520 2361 ft 187 kts 60°
2026-05-05 15:16 55.05827 -1.61361 2843 ft 203 kts 62°
2026-05-05 15:16 55.06425 -1.59087 3559 ft 208 kts 65°
2026-05-05 15:16 55.06635 -1.56542 4227 ft 223 kts 97°
2026-05-05 15:16 55.05861 -1.54137 4853 ft 242 kts 137°
2026-05-05 15:17 55.04277 -1.52852 5198 ft 267 kts 170°
2026-05-05 15:17 55.02374 -1.52563 5797 ft 279 kts 181°
2026-05-05 15:17 55.00418 -1.52652 6620 ft 283 kts 185°
2026-05-05 15:17 54.98463 -1.53070 7483 ft 282 kts 196°
2026-05-05 15:18 54.96623 -1.54245 8337 ft 281 kts 208°
2026-05-05 15:18 54.94931 -1.55956 9187 ft 282 kts 216°
2026-05-05 15:18 54.93249 -1.57745 10041 ft 285 kts 213°
2026-05-05 15:18 54.91511 -1.59534 10502 ft 301 kts 213°
2026-05-05 15:19 54.89633 -1.61449 10712 ft 324 kts 213°
2026-05-05 15:19 54.87616 -1.63503 10857 ft 347 kts 213°
2026-05-05 15:19 54.85483 -1.65675 11246 ft 360 kts 213°
2026-05-05 15:19 54.83309 -1.67887 11876 ft 364 kts 213°
2026-05-05 15:20 54.81115 -1.70125 12580 ft 367 kts 213°
2026-05-05 15:20 54.78904 -1.72385 13273 ft 370 kts 213°
2026-05-05 15:20 54.76677 -1.74660 13946 ft 373 kts 213°
2026-05-05 15:20 54.74431 -1.76952 14553 ft 376 kts 213°
2026-05-05 15:21 54.72132 -1.79169 15145 ft 380 kts 207°
2026-05-05 15:21 54.69629 -1.80738 15749 ft 386 kts 197°
2026-05-05 15:21 54.66972 -1.81653 16338 ft 390 kts 193°
2026-05-05 15:21 54.64297 -1.82498 16941 ft 393 kts 193°
2026-05-05 15:22 54.61595 -1.83352 17537 ft 396 kts 193°
2026-05-05 15:22 54.58873 -1.84213 18130 ft 398 kts 193°
2026-05-05 15:22 54.56132 -1.85078 18667 ft 401 kts 193°
2026-05-05 15:22 54.53380 -1.85945 19181 ft 403 kts 193°
2026-05-05 15:23 54.50611 -1.86812 19692 ft 405 kts 193°
2026-05-05 15:23 54.47831 -1.87680 20168 ft 407 kts 193°
2026-05-05 15:23 54.45032 -1.88552 20643 ft 409 kts 193°
2026-05-05 15:23 54.42226 -1.89428 21109 ft 411 kts 193°
2026-05-05 15:24 54.39402 -1.90309 21576 ft 413 kts 193°
2026-05-05 15:24 54.36567 -1.91194 22024 ft 415 kts 193°
2026-05-05 15:24 54.33720 -1.92085 22453 ft 417 kts 193°
2026-05-05 15:24 54.30862 -1.92976 22878 ft 419 kts 193°
2026-05-05 15:25 54.27982 -1.93840 23282 ft 422 kts 191°
2026-05-05 15:25 54.25034 -1.94085 23660 ft 428 kts 181°
2026-05-05 15:25 54.22061 -1.93425 23947 ft 435 kts 170°
2026-05-05 15:25 54.19161 -1.91832 24241 ft 442 kts 159°
2026-05-05 15:26 54.16424 -1.89379 24535 ft 446 kts 152°
2026-05-05 15:26 54.13745 -1.86674 24839 ft 448 kts 151°
2026-05-05 15:26 54.11077 -1.83885 25132 ft 450 kts 150°
2026-05-05 15:26 54.08411 -1.81054 25433 ft 452 kts 150°
2026-05-05 15:27 54.05826 -1.77987 25713 ft 456 kts 142°
2026-05-05 15:27 54.03429 -1.74435 25989 ft 458 kts 141°
2026-05-05 15:27 54.01027 -1.70855 26261 ft 460 kts 141°
2026-05-05 15:27 53.98650 -1.67303 26530 ft 461 kts 141°
2026-05-05 15:28 53.97024 -1.64867 26712 ft 462 kts 140°
2026-05-05 15:28 53.93828 -1.60085 27074 ft 463 kts 140°
2026-05-05 15:28 53.91408 -1.56478 27324 ft 464 kts 141°
2026-05-05 15:28 53.88977 -1.52865 27577 ft 465 kts 141°
2026-05-05 15:29 53.86548 -1.49266 27878 ft 464 kts 141°
2026-05-05 15:29 53.84118 -1.45677 28224 ft 463 kts 141°
2026-05-05 15:29 53.82480 -1.43261 28446 ft 462 kts 141°
2026-05-05 15:29 53.80058 -1.39690 28776 ft 461 kts 141°
2026-05-05 15:30 53.76856 -1.34976 29217 ft 460 kts 141°
2026-05-05 15:30 53.75225 -1.32581 29446 ft 459 kts 140°
2026-05-05 15:30 53.72815 -1.29042 29784 ft 458 kts 140°
2026-05-05 15:30 53.70453 -1.25576 30171 ft 455 kts 140°
2026-05-05 15:31 53.68061 -1.22075 30477 ft 453 kts 140°
2026-05-05 15:31 53.65684 -1.18599 30768 ft 452 kts 140°
2026-05-05 15:31 53.63310 -1.15128 31051 ft 451 kts 140°
2026-05-05 15:31 53.60939 -1.11670 31329 ft 450 kts 141°
2026-05-05 15:32 53.58568 -1.08225 31615 ft 450 kts 140°
2026-05-05 15:32 53.56199 -1.04789 31888 ft 450 kts 140°
2026-05-05 15:32 53.53832 -1.01356 32133 ft 449 kts 140°
2026-05-05 15:32 53.51470 -0.97931 32429 ft 448 kts 141°
2026-05-05 15:33 53.49117 -0.94526 32739 ft 446 kts 140°
2026-05-05 15:33 53.46766 -0.91131 33024 ft 445 kts 140°
2026-05-05 15:33 53.44414 -0.87741 33299 ft 445 kts 140°
2026-05-05 15:33 53.42064 -0.84356 33557 ft 445 kts 140°
2026-05-05 15:34 53.39715 -0.80983 33841 ft 444 kts 140°
2026-05-05 15:34 53.37369 -0.77627 34103 ft 443 kts 140°
2026-05-05 15:34 53.35025 -0.74273 34298 ft 444 kts 139°
2026-05-05 15:34 53.32840 -0.70612 34489 ft 445 kts 130°
2026-05-05 15:35 53.31030 -0.66409 34680 ft 447 kts 121°
2026-05-05 15:35 53.29635 -0.61757 34863 ft 448 kts 112°
2026-05-05 15:35 53.28644 -0.56808 34981 ft 450 kts 108°
2026-05-05 15:36 53.26755 -0.46744 35001 ft 455 kts 108°
2026-05-05 15:36 53.24837 -0.36664 35001 ft 457 kts 109°
2026-05-05 15:37 53.22909 -0.26555 35001 ft 457 kts 109°
2026-05-05 15:37 53.20968 -0.16455 35003 ft 457 kts 109°
2026-05-05 15:38 53.19014 -0.06355 35009 ft 458 kts 108°
2026-05-05 15:38 53.17056 0.03747 34997 ft 458 kts 109°
2026-05-05 15:39 53.15101 0.13825 34991 ft 459 kts 109°
2026-05-05 15:39 53.13123 0.23928 34990 ft 459 kts 110°
2026-05-05 15:40 53.11135 0.34024 34991 ft 459 kts 109°
2026-05-05 15:40 53.09134 0.44109 34990 ft 459 kts 110°
2026-05-05 15:41 53.07193 0.53861 34988 ft 459 kts 110°
2026-05-05 15:41 53.05217 0.63740 34978 ft 459 kts 110°
2026-05-05 15:42 53.03247 0.73517 34981 ft 460 kts 110°
2026-05-05 15:42 53.01218 0.83585 34976 ft 460 kts 110°
2026-05-05 15:43 52.99167 0.93651 34971 ft 460 kts 111°
2026-05-05 15:43 52.97091 1.03697 34964 ft 460 kts 112°
2026-05-05 15:44 52.94875 1.13638 34956 ft 459 kts 113°
2026-05-05 15:44 52.92587 1.23526 34964 ft 460 kts 114°
2026-05-05 15:45 52.90301 1.33426 34966 ft 460 kts 113°
2026-05-05 15:45 52.88032 1.43328 34967 ft 460 kts 113°
2026-05-05 15:46 52.85763 1.53243 34958 ft 460 kts 114°
2026-05-05 15:46 52.83480 1.63158 34958 ft 461 kts 114°
2026-05-05 15:47 52.81193 1.73008 34962 ft 462 kts 114°
2026-05-05 15:47 52.78919 1.82775 34960 ft 462 kts 114°
2026-05-05 15:48 52.77173 1.90235 34964 ft 462 kts 114°
2026-05-05 15:48 52.74851 2.00127 34961 ft 462 kts 114°
2026-05-05 15:49 52.72528 2.09987 34952 ft 462 kts 114°
2026-05-05 15:49 52.70182 2.19869 34957 ft 463 kts 114°
2026-05-05 15:50 52.67827 2.29749 34962 ft 463 kts 114°
2026-05-05 15:50 52.65473 2.39617 34965 ft 463 kts 114°
2026-05-05 15:51 52.63098 2.49486 34964 ft 463 kts 114°
2026-05-05 15:51 52.60794 2.59026 34970 ft 463 kts 114°
2026-05-05 15:52 52.58423 2.68850 34975 ft 463 kts 114°
2026-05-05 15:52 52.56036 2.78647 34977 ft 463 kts 115°
2026-05-05 15:53 52.53558 2.88377 34971 ft 462 kts 117°
2026-05-05 15:53 52.50855 2.97757 34971 ft 461 kts 119°
2026-05-05 15:54 52.48021 3.07151 34961 ft 459 kts 119°
2026-05-05 15:54 52.45237 3.16532 34985 ft 457 kts 118°
2026-05-05 15:55 52.42502 3.25880 34987 ft 455 kts 118°
2026-05-05 15:55 52.39777 3.35209 34985 ft 453 kts 118°
2026-05-05 15:56 52.37039 3.44486 34975 ft 452 kts 119°
2026-05-05 15:56 52.34283 3.53740 34962 ft 451 kts 120°
2026-05-05 15:57 52.31528 3.62944 34952 ft 451 kts 120°
2026-05-05 15:57 52.28775 3.72152 34952 ft 450 kts 120°
2026-05-05 15:58 52.26023 3.81331 34943 ft 450 kts 120°
2026-05-05 15:58 52.23260 3.90500 34943 ft 450 kts 120°
2026-05-05 15:59 52.20489 3.99661 34916 ft 450 kts 120°
2026-05-05 15:59 52.17717 4.08788 34932 ft 449 kts 120°
2026-05-05 16:00 52.14944 4.17890 34923 ft 448 kts 120°
2026-05-05 16:00 52.12183 4.26916 34915 ft 447 kts 120°
2026-05-05 16:01 52.09407 4.35939 34909 ft 447 kts 121°
2026-05-05 16:01 52.06618 4.44964 34907 ft 447 kts 121°
2026-05-05 16:02 52.03828 4.53977 34899 ft 446 kts 121°
2026-05-05 16:02 52.01038 4.62982 34915 ft 446 kts 121°
2026-05-05 16:03 51.98240 4.71957 34896 ft 446 kts 121°
2026-05-05 16:03 51.95425 4.80943 34896 ft 446 kts 121°
2026-05-05 16:04 51.92610 4.89896 34889 ft 446 kts 121°
2026-05-05 16:04 51.89785 4.98859 34890 ft 446 kts 121°
2026-05-05 16:05 51.86953 5.07805 34888 ft 447 kts 121°
2026-05-05 16:05 51.84113 5.16740 34892 ft 447 kts 121°
2026-05-05 16:06 51.81271 5.25672 34901 ft 447 kts 121°
2026-05-05 16:06 51.78411 5.34619 34876 ft 447 kts 121°
2026-05-05 16:07 51.75550 5.43532 34889 ft 447 kts 121°
2026-05-05 16:07 51.72677 5.52448 34878 ft 448 kts 121°
2026-05-05 16:08 51.69798 5.61348 34884 ft 448 kts 121°
2026-05-05 16:08 51.66927 5.70185 34895 ft 448 kts 121°
2026-05-05 16:09 51.64031 5.79062 34904 ft 447 kts 121°
2026-05-05 16:09 51.61604 5.86477 34894 ft 446 kts 122°
2026-05-05 16:10 51.58729 5.95252 34900 ft 446 kts 122°
2026-05-05 16:10 51.55836 6.04059 34908 ft 446 kts 122°
2026-05-05 16:11 51.52939 6.12864 34908 ft 445 kts 122°
2026-05-05 16:12 51.47763 6.30981 34888 ft 449 kts 116°
2026-05-05 16:13 51.42043 6.54262 34878 ft 448 kts 117°
2026-05-05 16:13 51.39729 6.63540 34873 ft 448 kts 117°
2026-05-05 16:14 51.35121 6.82016 34883 ft 444 kts 117°
2026-05-05 16:15 51.32839 6.91142 34475 ft 439 kts 117°
2026-05-05 16:15 51.30581 7.00120 34002 ft 427 kts 117°
2026-05-05 16:16 51.28263 7.08552 33461 ft 400 kts 126°
2026-05-05 16:16 51.24924 7.15215 32913 ft 380 kts 142°
2026-05-05 16:17 51.20610 7.19980 31665 ft 381 kts 156°
2026-05-05 16:17 51.18247 7.21823 31265 ft 375 kts 156°
2026-05-05 16:18 51.13592 7.25493 30230 ft 372 kts 156°
2026-05-05 16:18 51.11275 7.27329 29756 ft 371 kts 155°
2026-05-05 16:18 51.06638 7.31113 27749 ft 389 kts 154°
2026-05-05 16:19 51.04173 7.33156 26189 ft 410 kts 154°
2026-05-05 16:19 51.01580 7.35314 24714 ft 434 kts 153°
2026-05-05 16:19 50.96080 7.39870 23937 ft 447 kts 153°
2026-05-05 16:20 50.90779 7.44237 23543 ft 412 kts 153°
2026-05-05 16:20 50.85873 7.48255 23296 ft 381 kts 154°
2026-05-05 16:21 50.81336 7.51949 22990 ft 356 kts 154°
2026-05-05 16:22 50.74937 7.57167 21895 ft 339 kts 154°
2026-05-05 16:22 50.70762 7.60565 21006 ft 335 kts 154°
2026-05-05 16:23 50.66633 7.63903 20144 ft 332 kts 154°
2026-05-05 16:23 50.64585 7.65559 19737 ft 330 kts 154°
2026-05-05 16:23 50.60524 7.68846 18924 ft 327 kts 154°
2026-05-05 16:24 50.58503 7.70475 18532 ft 325 kts 154°
2026-05-05 16:24 50.56492 7.72089 18182 ft 324 kts 154°
2026-05-05 16:24 50.52494 7.75299 17450 ft 321 kts 154°
2026-05-05 16:25 50.50506 7.76898 17097 ft 319 kts 154°
2026-05-05 16:25 50.46575 7.80055 16308 ft 316 kts 154°
2026-05-05 16:25 50.44622 7.81627 15931 ft 314 kts 153°
2026-05-05 16:26 50.41073 7.85558 15192 ft 312 kts 142°
2026-05-05 16:26 50.37695 7.89749 14325 ft 306 kts 142°
2026-05-05 16:27 50.36032 7.91810 13693 ft 304 kts 143°
2026-05-05 16:27 50.34379 7.93855 12999 ft 301 kts 142°
2026-05-05 16:27 50.32742 7.95878 12303 ft 298 kts 143°
2026-05-05 16:27 50.31120 7.97873 11639 ft 295 kts 143°
2026-05-05 16:28 50.29520 7.99845 10978 ft 292 kts 143°
2026-05-05 16:28 50.27935 8.01796 10328 ft 289 kts 143°
2026-05-05 16:28 50.26408 8.03812 9850 ft 286 kts 135°
2026-05-05 16:28 50.25162 8.06227 9731 ft 285 kts 129°
2026-05-05 16:29 50.23962 8.08685 9674 ft 284 kts 129°
2026-05-05 16:29 50.22753 8.11131 9617 ft 284 kts 129°
2026-05-05 16:29 50.21561 8.13533 9544 ft 283 kts 129°
2026-05-05 16:29 50.20339 8.15993 9476 ft 283 kts 129°
2026-05-05 16:30 50.19145 8.18396 9401 ft 283 kts 129°
2026-05-05 16:30 50.17940 8.20828 9336 ft 283 kts 129°
2026-05-05 16:30 50.16736 8.23262 9269 ft 283 kts 129°
2026-05-05 16:30 50.15533 8.25690 9203 ft 282 kts 129°
2026-05-05 16:31 50.14330 8.28114 9146 ft 283 kts 130°
2026-05-05 16:31 50.13131 8.30531 9072 ft 281 kts 129°
2026-05-05 16:31 50.11938 8.32939 8996 ft 280 kts 129°
2026-05-05 16:31 50.10940 8.35558 8934 ft 283 kts 113°
2026-05-05 16:32 50.10500 8.38548 8838 ft 287 kts 96°
2026-05-05 16:32 50.10681 8.41668 8345 ft 293 kts 76°
2026-05-05 16:32 50.11374 8.44618 8141 ft 289 kts 70°
2026-05-05 16:32 50.12089 8.47544 8021 ft 288 kts 71°
2026-05-05 16:33 50.12791 8.50464 7885 ft 288 kts 71°
2026-05-05 16:33 50.13488 8.53387 7765 ft 287 kts 71°
2026-05-05 16:33 50.14182 8.56306 7634 ft 287 kts 71°
2026-05-05 16:33 50.14871 8.59224 7506 ft 287 kts 71°
2026-05-05 16:34 50.15561 8.62145 7378 ft 287 kts 72°
2026-05-05 16:34 50.16252 8.65069 7254 ft 286 kts 71°
2026-05-05 16:34 50.16941 8.67975 7130 ft 286 kts 71°
2026-05-05 16:34 50.17632 8.70880 7007 ft 286 kts 71°
2026-05-05 16:35 50.18322 8.73791 6879 ft 286 kts 71°
2026-05-05 16:35 50.19009 8.76690 6753 ft 284 kts 71°
2026-05-05 16:35 50.19695 8.79588 6631 ft 284 kts 71°
2026-05-05 16:35 50.20379 8.82488 6507 ft 284 kts 71°
2026-05-05 16:36 50.21058 8.85375 6386 ft 283 kts 71°
2026-05-05 16:36 50.21734 8.88258 6265 ft 283 kts 73°
2026-05-05 16:36 50.22115 8.91231 6131 ft 277 kts 94°
2026-05-05 16:36 50.21647 8.94087 5998 ft 272 kts 122°
2026-05-05 16:37 50.20389 8.96226 5871 ft 267 kts 148°
2026-05-05 16:37 50.18721 8.97328 5731 ft 255 kts 171°
2026-05-05 16:37 50.17006 8.97406 5610 ft 241 kts 190°
2026-05-05 16:37 50.15457 8.96620 5476 ft 230 kts 208°
2026-05-05 16:38 50.14216 8.95163 5356 ft 219 kts 226°
2026-05-05 16:38 50.13371 8.93258 5238 ft 210 kts 244°
2026-05-05 16:38 50.12949 8.91121 5104 ft 207 kts 258°
2026-05-05 16:38 50.12704 8.88895 5020 ft 209 kts 259°
2026-05-05 16:39 50.12401 8.86678 5000 ft 210 kts 252°
2026-05-05 16:39 50.11961 8.84534 4835 ft 212 kts 249°
2026-05-05 16:39 50.11455 8.82348 4521 ft 211 kts 249°
2026-05-05 16:39 50.10951 8.80209 4211 ft 209 kts 249°
2026-05-05 16:40 50.10463 8.78141 3916 ft 202 kts 249°
2026-05-05 16:40 50.09987 8.76125 3663 ft 194 kts 248°
2026-05-05 16:40 50.09527 8.74181 3365 ft 188 kts 249°
2026-05-05 16:40 50.09094 8.72353 3113 ft 182 kts 249°
2026-05-05 16:41 50.08664 8.70537 2862 ft 175 kts 249°
2026-05-05 16:41 50.08247 8.68779 2611 ft 170 kts 249°
2026-05-05 16:41 50.07849 8.67098 2372 ft 160 kts 250°
2026-05-05 16:41 50.07466 8.65488 2172 ft 158 kts 250°
2026-05-05 16:42 50.07102 8.63957 1927 ft 151 kts 250°
2026-05-05 16:42 50.06762 8.62525 1732 ft 139 kts 250°
2026-05-05 16:42 50.06435 8.61151 1534 ft 136 kts 249°
2026-05-05 16:42 50.06126 8.59852 1354 ft 134 kts 250°
2026-05-05 16:43 50.05847 8.58682 1175 ft 133 kts 250°
2026-05-05 16:43 50.05524 8.57327 987 ft 134 kts 250°
2026-05-05 16:43 50.05201 8.55972 785 ft 132 kts 251°
2026-05-05 16:43 50.04877 8.54616 581 ft 134 kts 250°
2026-05-05 16:44 50.04561 8.53272 381 ft 132 kts 250°
2026-05-05 16:44 50.04272 8.52068 340 ft 96 kts 250°
2026-05-05 16:44 50.04099 8.51349 331 ft 42 kts 250°
2026-05-05 16:44 50.03981 8.51027 326 ft 32 kts 226°
2026-05-05 16:45 50.03862 8.50859 328 ft 15 kts 220°
2026-05-05 16:45 50.03793 8.50858 331 ft 7 kts 140°
2026-05-05 16:45 50.03790 8.50959 335 ft 18 kts 59°
2026-05-05 16:46 50.03825 8.51099 334 ft 24 kts 71°
2026-05-05 16:46 50.03887 8.51367 331 ft 25 kts 69°
2026-05-05 16:46 50.03943 8.51604 335 ft 21 kts 69°
2026-05-05 16:46 50.03992 8.51805 337 ft 18 kts 70°
2026-05-05 16:47 50.04040 8.52009 335 ft 21 kts 70°
2026-05-05 16:47 50.04089 8.52215 347 ft 23 kts 69°
2026-05-05 16:47 50.04154 8.52482 347 ft 28 kts 70°
2026-05-05 16:47 50.04216 8.52742 359 ft 23 kts 70°
2026-05-05 16:48 50.04270 8.52969 353 ft 24 kts 69°
2026-05-05 16:48 50.04309 8.53131 358 ft 23 kts 69°
2026-05-05 16:48 50.04360 8.53347 371 ft 19 kts 69°
2026-05-05 16:48 50.04395 8.53529 375 ft 17 kts 82°
2026-05-05 16:49 50.04412 8.53779 375 ft 26 kts 84°
2026-05-05 16:49 50.04430 8.54047 375 ft 23 kts 84°
2026-05-05 16:49 50.04445 8.54273 375 ft 18 kts 84°
2026-05-05 16:49 50.04452 8.54455 370 ft 16 kts 94°
2026-05-05 16:50 50.04413 8.54634 366 ft 17 kts 123°
2026-05-05 16:50 50.04328 8.54757 358 ft 16 kts 149°
2026-05-05 16:50 50.04225 8.54821 352 ft 16 kts 161°
2026-05-05 16:50 50.04133 8.54872 352 ft 12 kts 159°
2026-05-05 16:51 50.04083 8.54902 352 ft 4 kts 159°
2026-05-05 16:51 50.04080 8.54903 351 ft 0 kts 159°
2026-05-05 16:53 50.04046 8.54923 353 ft 8 kts 159°
2026-05-05 16:53 50.04015 8.54984 359 ft 9 kts 94°
2026-05-05 16:53 50.04040 8.55106 358 ft 10 kts 69°
2026-05-05 16:53 50.04057 8.55181 357 ft 5 kts 70°
2026-05-05 16:54 50.04079 8.55274 353 ft 20 kts 69°
2026-05-05 16:54 50.04127 8.55474 353 ft 18 kts 70°
2026-05-05 16:54 50.04163 8.55624 354 ft 12 kts 70°
2026-05-05 16:54 50.04183 8.55708 360 ft 5 kts 70°
2026-05-05 16:55 50.04204 8.55797 356 ft 12 kts 70°
2026-05-05 16:55 50.04201 8.55904 355 ft 13 kts 132°
2026-05-05 16:55 50.04129 8.55952 355 ft 9 kts 160°
2026-05-05 16:55 50.04076 8.55996 355 ft 15 kts 128°
2026-05-05 16:56 50.04101 8.56174 357 ft 17 kts 69°
2026-05-05 16:56 50.04137 8.56323 354 ft 13 kts 70°
2026-05-05 16:56 50.04183 8.56515 360 ft 26 kts 69°
2026-05-05 16:56 50.04242 8.56762 361 ft 22 kts 69°
2026-05-05 16:57 50.04289 8.56957 361 ft 19 kts 70°
2026-05-05 16:57 50.04334 8.57147 361 ft 21 kts 70°
2026-05-05 16:57 50.04382 8.57347 361 ft 16 kts 70°
2026-05-05 16:57 50.04412 8.57474 363 ft 12 kts 69°
2026-05-05 16:58 50.04438 8.57584 365 ft 7 kts 70°
2026-05-05 16:58 50.04461 8.57680 366 ft 14 kts 70°
2026-05-05 16:58 50.04489 8.57798 366 ft 9 kts 70°
2026-05-05 16:58 50.04516 8.57907 367 ft 17 kts 69°
2026-05-05 16:59 50.04553 8.58065 365 ft 14 kts 70°
2026-05-05 16:59 50.04586 8.58203 369 ft 10 kts 69°
2026-05-05 16:59 50.04610 8.58302 373 ft 11 kts 69°
2026-05-05 16:59 50.04618 8.58336 370 ft 0 kts 69°
2026-05-05 17:01 50.04619 8.58339 368 ft 2 kts 69°
2026-05-05 17:02 50.04626 8.58370 369 ft 2 kts 69°
2026-05-05 17:02 50.04639 8.58424 370 ft 8 kts 70°
2026-05-05 17:02 50.04661 8.58517 371 ft 10 kts 70°
2026-05-05 17:02 50.04679 8.58591 370 ft 5 kts 69°
2026-05-05 17:03 50.04686 8.58622 369 ft 2 kts 69°
2026-05-05 17:03 50.04689 8.58634 371 ft 2 kts 69°
2026-05-05 17:03 50.04690 8.58638 370 ft 0 kts 69°
2026-05-05 17:10 50.04692 8.58647 371 ft 7 kts 69°
2026-05-05 17:10 50.04727 8.58771 370 ft 12 kts 67°
2026-05-05 17:10 50.04749 8.58862 371 ft 7 kts 70°
2026-05-05 17:10 50.04781 8.58996 368 ft 17 kts 69°
2026-05-05 17:11 50.04811 8.59125 370 ft 8 kts 69°
2026-05-05 17:11 50.04841 8.59144 367 ft 6 kts 346°
2026-05-05 17:11 50.04888 8.59117 372 ft 6 kts 339°
2026-05-05 17:11 50.04902 8.59109 371 ft 0 kts 340°
2026-05-05 17:12 50.04903 8.59108 365 ft 0 kts 340°